User: anonymous   Login
Location: Rometta
(44.2000°N, 10.0500°E)
Time: 03:42:18
(UTC+00:00)
Language:

Cosmos 1300 - Orbit

View from above orbital plane
View from above orbital plane
View from above satellite
View from above satellite

Ground track
Ground track

The orbit data is extracted from the following two-line orbital elements,

1 12785U 81082A   21106.48729653  .00000705  00000-0  33069-4 0  9993
2 12785  82.5005 128.5028 0002825  79.7701  36.9486 15.18030792163810
Epoch (UTC): 16 April 2021 11:41:42
Eccentricity: 0.0002825
inclination: 82.5005°
perigee height: 510 km
apogee height: 514 km
right ascension of ascending node: 128.5028°
argument of perigee: 79.7701°
revolutions per day: 15.18030792
mean anomaly at epoch: 36.9486°
orbit number at epoch: 16381

The dashed part of the orbit path shows where the satellite is in the earth's shadow,  

DLR